Weather History for Scottsbluff, NE

Change the Weather History Date:

Thursday, October 10, 2013

  Actual Average Record
Temperature  
Mean Temperature 47 °F 51 °F  
Max Temperature 58 °F 66 °F 92 °F (1910)
Min Temperature 36 °F 35 °F 11 °F (2009)
Degree Days  
Heating Degree Days 18 14  
Month to date heating degree days 143 126  
Since 1 July heating degree days 231 305  
Cooling Degree Days 0 0  
Month to date cooling degree days 0 0  
Year to date cooling degree days 1047 723  
Moisture  
Dew Point 43 °F    
Average Humidity 83    
Maximum Humidity 100    
Minimum Humidity 66    
Precipitation  
Precipitation 0.06 in 0.04 in 1.42 in (2005)
Month to date precipitation 1.01 0.40  
Year to date precipitation 11.23 13.88  
Snow  
Snow 0.00 in 0.10 in 3.00 in (2009)
Month to date snowfall 6.1 0.6  
Since 1 July snowfall 6.1 1.1  
Snow Depth 0.00 in    
Sea Level Pressure  
Sea Level Pressure 29.65 in    
Wind  
Wind Speed 6 mph (North)    
Max Wind Speed 17 mph    
Max Gust Speed 22 mph    
Visibility 10 miles    
Events Rain    
T = Trace of Precipitation, MM = Missing Value Source: NWS Daily Summary

Daily Weather History Graph

Daily Weather History Graph

Search for Another Location

Airport:

Trip Planner

Search our weather history database for the weather conditions in past years. The results will help you decide how hot, cold, wet, or windy it might be!

Date:

Astronomy

Oct. 10, 2013 Rise Set
Actual Time 7:01 AM MDT 6:20 PM MDT
Civil Twilight 6:33 AM MDT 6:48 PM MDT
Nautical Twilight 6:01 AM MDT 7:20 PM MDT
Astronomical Twilight 5:28 AM MDT 7:52 PM MDT
Moon 12:58 PM MDT (10/10) 10:57 PM MDT (10/10)
Length of Visible Light 12h 14m
Length of Day
11h 19m
Waxing Crescent, 36% of the Moon is Illuminated
Oct 10
Waxing Crescent
Oct 11
First Quarter
Oct 18
Full
Oct 26
Last Quarter
Nov 3
New

Hourly Weather History & Observations

Time (MDT) Temp. Windchill Dew Point Humidity Pressure Visibility Wind Dir Wind Speed Gust Speed Precip Events Conditions
12:53 AM 41.0 °F 39.0 °F 37.9 °F 89% 29.92 in 10.0 mi West 3.5 mph - N/A   Clear
1:53 AM 39.9 °F - 37.0 °F 89% 29.91 in 10.0 mi Calm Calm - N/A   Clear
2:53 AM 37.0 °F 34.5 °F 36.0 °F 96% 29.90 in 10.0 mi NW 3.5 mph - N/A   Clear
3:53 AM 37.0 °F 32.4 °F 36.0 °F 96% 29.88 in 10.0 mi North 5.8 mph - N/A   Clear
4:53 AM 36.0 °F - 35.1 °F 97% 29.87 in 10.0 mi Calm Calm - N/A   Clear
5:53 AM 37.0 °F 34.5 °F 36.0 °F 96% 29.86 in 10.0 mi West 3.5 mph - N/A   Unknown
6:53 AM 37.9 °F - 37.0 °F 97% 29.84 in 10.0 mi Calm Calm - N/A   Clear
7:53 AM 39.0 °F - 37.9 °F 96% 29.85 in 10.0 mi Calm Calm - N/A   Clear
8:53 AM 44.1 °F - 39.0 °F 82% 29.83 in 10.0 mi Calm Calm - N/A   Clear
9:53 AM 46.9 °F - 39.9 °F 77% 29.81 in 10.0 mi SE 3.5 mph - N/A   Clear
10:53 AM 51.1 °F - 41.0 °F 68% 29.76 in 10.0 mi East 4.6 mph - N/A   Clear
11:53 AM 54.0 °F - 43.0 °F 66% 29.73 in 10.0 mi East 8.1 mph - N/A   Clear
12:53 PM 54.0 °F - 44.1 °F 69% 29.70 in 10.0 mi ESE 5.8 mph - N/A   Clear
1:53 PM 55.9 °F - 45.0 °F 67% 29.64 in 10.0 mi ESE 6.9 mph - N/A   Clear
2:53 PM 55.9 °F - 46.0 °F 69% 29.62 in 10.0 mi ESE 8.1 mph - N/A   Clear
3:53 PM 55.9 °F - 46.9 °F 72% 29.62 in 10.0 mi ESE 4.6 mph - N/A   Clear
4:53 PM 57.0 °F - 48.0 °F 72% 29.56 in 10.0 mi North 5.8 mph - N/A   Clear
5:53 PM 55.0 °F - 48.0 °F 77% 29.61 in 10.0 mi West 10.4 mph - N/A   Overcast
6:53 PM 53.1 °F - 48.0 °F 83% 29.52 in 10.0 mi WNW 6.9 mph - N/A   Clear
7:53 PM 51.1 °F - 46.0 °F 83% 29.46 in 10.0 mi West 9.2 mph - N/A   Scattered Clouds
8:53 PM 51.1 °F - 46.9 °F 86% 29.47 in 10.0 mi West 8.1 mph - N/A   Overcast
9:53 PM 52.0 °F - 48.9 °F 89% 29.44 in 10.0 mi North 9.2 mph - 0.00 in Rain Light Rain
10:13 PM 51.8 °F - 48.2 °F 88% 29.39 in 10.0 mi NNW 16.1 mph - 0.01 in Rain Light Rain
10:53 PM 52.0 °F - 50.0 °F 93% 29.31 in 10.0 mi NNE 12.7 mph - 0.03 in   Overcast
11:49 PM 53.6 °F - 50.0 °F 88% 29.31 in 10.0 mi NE 12.7 mph - 0.00 in Rain Light Rain
11:53 PM 53.1 °F - 50.0 °F 89% 29.24 in 9.0 mi NE 15.0 mph - 0.00 in Rain Light Rain